TimeCST,TemperatureF,Dew PointF,Humidity,Sea Level PressureIn,VisibilityMPH,Wind Direction,Wind SpeedMPH,Gust SpeedMPH,PrecipitationIn,Events,Conditions,WindDirDegrees,DateUTC
12:15 AM,42.8,37.4,81,29.82,3.0,NW,3.5,-,N/A,,Haze,310,2013-01-28 06:15:00
12:35 AM,42.8,37.4,81,29.82,2.5,WNW,5.8,-,N/A,,Overcast,300,2013-01-28 06:35:00
12:55 AM,42.8,37.4,81,29.83,1.2,NW,5.8,-,N/A,,Haze,310,2013-01-28 06:55:00
1:15 AM,41.0,37.4,87,29.83,0.8,Calm,Calm,-,N/A,,Overcast,0,2013-01-28 07:15:00
1:35 AM,41.0,37.4,87,29.84,0.5,NW,3.5,-,N/A,Fog,Fog,310,2013-01-28 07:35:00
1:55 AM,41.0,35.6,81,29.84,0.2,NW,4.6,-,N/A,,Haze,320,2013-01-28 07:55:00
2:15 AM,41.0,35.6,81,29.84,0.5,Calm,Calm,-,N/A,,Haze,0,2013-01-28 08:15:00
2:35 AM,39.2,35.6,87,29.85,0.5,WNW,3.5,-,N/A,Fog,Fog,300,2013-01-28 08:35:00
2:55 AM,39.2,35.6,87,29.84,0.5,NW,3.5,-,N/A,Fog,Fog,320,2013-01-28 08:55:00
3:15 AM,39.2,35.6,87,29.84,0.5,Calm,Calm,-,N/A,,Haze,0,2013-01-28 09:15:00
3:35 AM,39.2,35.6,87,29.84,0.5,Calm,Calm,-,N/A,,Haze,0,2013-01-28 09:35:00
3:55 AM,39.2,35.6,87,29.84,0.5,Calm,Calm,-,N/A,Fog,Fog,0,2013-01-28 09:55:00
4:15 AM,39.2,35.6,87,29.84,0.2,Calm,Calm,-,N/A,Fog,Fog,0,2013-01-28 10:15:00
4:35 AM,39.2,33.8,81,29.84,0.5,Calm,Calm,-,N/A,,Haze,0,2013-01-28 10:35:00
4:55 AM,37.4,33.8,87,29.85,0.2,Calm,Calm,-,0.01,Fog,Fog,0,2013-01-28 10:55:00
5:15 AM,37.4,33.8,87,29.86,0.5,Calm,Calm,-,N/A,Fog,Fog,0,2013-01-28 11:15:00
5:55 AM,37.4,33.8,87,29.86,0.2,Calm,Calm,-,N/A,Fog,Fog,0,2013-01-28 11:55:00
6:35 AM,37.4,33.8,87,29.86,0.8,Calm,Calm,-,N/A,,Haze,0,2013-01-28 12:35:00
6:55 AM,37.4,33.8,87,29.86,0.5,ESE,3.5,-,N/A,Fog,Fog,120,2013-01-28 12:55:00
7:15 AM,37.4,33.8,87,29.87,0.8,ESE,5.8,-,N/A,,Overcast,120,2013-01-28 13:15:00
7:35 AM,37.4,33.8,87,29.87,0.5,ESE,3.5,-,N/A,Fog,Fog,110,2013-01-28 13:35:00
7:55 AM,37.4,33.8,87,29.87,0.5,ESE,3.5,-,N/A,,Haze,120,2013-01-28 13:55:00
8:15 AM,37.4,33.8,87,29.88,0.2,East,4.6,-,N/A,Fog,Fog,100,2013-01-28 14:15:00
8:35 AM,37.4,33.8,87,29.88,0.2,East,4.6,-,N/A,Fog,Fog,80,2013-01-28 14:35:00
8:55 AM,37.4,33.8,87,29.88,0.2,NE,3.5,-,N/A,Fog,Fog,40,2013-01-28 14:55:00
9:15 AM,37.4,33.8,87,29.88,0.2,ESE,3.5,-,N/A,Fog,Fog,110,2013-01-28 15:15:00
9:35 AM,39.2,33.8,81,29.85,0.2,East,5.8,-,N/A,,Haze,100,2013-01-28 15:35:00
9:55 AM,39.2,35.6,87,29.83,0.2,NE,6.9,-,N/A,,Haze,50,2013-01-28 15:55:00
10:15 AM,39.2,35.6,87,29.85,0.5,SE,8.1,-,N/A,Fog,Fog,140,2013-01-28 16:15:00
10:35 AM,41.0,37.4,87,29.85,0.5,East,5.8,-,N/A,Fog,Fog,100,2013-01-28 16:35:00
10:55 AM,42.8,37.4,81,29.85,4.0,ESE,5.8,-,N/A,,Overcast,110,2013-01-28 16:55:00
11:15 AM,44.6,39.2,81,29.83,5.0,ESE,4.6,-,N/A,,Haze,120,2013-01-28 17:15:00
11:35 AM,44.6,41.0,87,29.82,10.0,ESE,5.8,-,N/A,,Overcast,110,2013-01-28 17:35:00
11:55 AM,46.4,42.8,87,29.82,10.0,ESE,5.8,-,N/A,,Overcast,120,2013-01-28 17:55:00
12:15 PM,46.4,42.8,87,29.81,10.0,ESE,4.6,-,N/A,,Overcast,110,2013-01-28 18:15:00
12:35 PM,46.4,42.8,87,29.79,7.0,SE,5.8,-,N/A,,Overcast,130,2013-01-28 18:35:00
12:55 PM,46.4,42.8,87,29.77,7.0,ESE,5.8,-,N/A,,Overcast,110,2013-01-28 18:55:00
1:15 PM,46.4,42.8,87,29.76,4.0,ESE,4.6,-,N/A,,Overcast,120,2013-01-28 19:15:00
1:35 PM,48.2,42.8,82,29.74,2.5,ESE,6.9,-,N/A,,Haze,110,2013-01-28 19:35:00
1:55 PM,48.2,44.6,87,29.73,2.5,ESE,9.2,-,N/A,,Haze,120,2013-01-28 19:55:00
2:15 PM,50.0,44.6,82,29.71,1.5,SE,8.1,-,N/A,,Haze,140,2013-01-28 20:15:00
2:35 PM,50.0,44.6,82,29.71,0.5,SE,8.1,-,N/A,,Haze,130,2013-01-28 20:35:00
2:55 PM,50.0,46.4,87,29.70,0.5,ESE,4.6,-,N/A,Fog,Fog,120,2013-01-28 20:55:00
3:15 PM,51.8,46.4,82,29.70,0.5,SE,8.1,-,N/A,,Haze,130,2013-01-28 21:15:00
3:35 PM,51.8,46.4,82,29.69,0.8,SE,6.9,-,N/A,,Overcast,130,2013-01-28 21:35:00
3:55 PM,51.8,46.4,82,29.68,0.5,SE,6.9,-,N/A,Fog,Fog,140,2013-01-28 21:55:00
4:15 PM,51.8,46.4,82,29.68,0.2,SE,5.8,-,N/A,Fog,Fog,130,2013-01-28 22:15:00
4:35 PM,51.8,46.4,82,29.67,0.2,ESE,5.8,-,N/A,,Haze,120,2013-01-28 22:35:00
4:55 PM,51.8,46.4,82,29.66,0.2,ESE,6.9,-,N/A,,Haze,120,2013-01-28 22:55:00
5:15 PM,51.8,46.4,82,29.65,0.5,ESE,3.5,-,N/A,Fog,Fog,110,2013-01-28 23:15:00
5:35 PM,51.8,46.4,82,29.65,0.5,ESE,3.5,-,N/A,Fog,Fog,110,2013-01-28 23:35:00
5:55 PM,51.8,46.4,82,29.65,0.5,ESE,3.5,-,N/A,,Haze,120,2013-01-28 23:55:00
6:15 PM,51.8,46.4,82,29.64,0.5,SE,4.6,-,N/A,Fog,Fog,130,2013-01-29 00:15:00
6:35 PM,51.8,46.4,82,29.64,0.5,SE,5.8,-,N/A,,Haze,140,2013-01-29 00:35:00
6:55 PM,51.8,46.4,82,29.63,0.5,SE,3.5,-,N/A,,Haze,130,2013-01-29 00:55:00
7:15 PM,51.8,46.4,82,29.63,0.2,Calm,Calm,-,N/A,,Haze,0,2013-01-29 01:15:00
7:35 PM,51.8,46.4,82,29.61,0.8,SE,5.8,-,N/A,,Haze,140,2013-01-29 01:35:00
7:55 PM,51.8,46.4,82,29.61,4.0,SSE,5.8,-,N/A,,Haze,150,2013-01-29 01:55:00
8:15 PM,50.0,44.6,82,29.60,0.5,Calm,Calm,-,N/A,,Haze,0,2013-01-29 02:15:00
8:35 PM,50.0,46.4,87,29.60,1.0,Calm,Calm,-,N/A,,Mostly Cloudy,0,2013-01-29 02:35:00
8:55 PM,50.0,46.4,87,29.59,4.0,Calm,Calm,-,N/A,,Mostly Cloudy,0,2013-01-29 02:55:00
9:15 PM,51.8,46.4,82,29.58,5.0,South,3.5,-,N/A,,Haze,180,2013-01-29 03:15:00
9:35 PM,51.8,46.4,82,29.58,7.0,South,4.6,-,N/A,,Clear,170,2013-01-29 03:35:00
9:55 PM,51.8,46.4,82,29.57,5.0,South,3.5,-,N/A,,Haze,190,2013-01-29 03:55:00
10:15 PM,51.8,46.4,82,29.56,7.0,South,5.8,-,N/A,,Scattered Clouds,180,2013-01-29 04:15:00
10:35 PM,51.8,46.4,82,29.56,5.0,South,5.8,-,N/A,,Haze,190,2013-01-29 04:35:00
10:55 PM,53.6,48.2,82,29.55,7.0,South,8.1,-,N/A,,Clear,190,2013-01-29 04:55:00
11:15 PM,53.6,50.0,88,29.54,7.0,South,8.1,-,N/A,,Scattered Clouds,190,2013-01-29 05:15:00
11:35 PM,55.4,50.0,82,29.54,7.0,South,8.1,-,N/A,,Scattered Clouds,190,2013-01-29 05:35:00
11:55 PM,57.2,51.8,82,29.53,7.0,South,9.2,-,N/A,,Scattered Clouds,190,2013-01-29 05:55:00